Location: Geelbroek
(52.9503°N, 6.5712°E)
Time: 21:46:26
(UTC+00:00)

CZ-4B R/B - Pass Details

Date: 15 May 2026
Orbit: 700 x 797 km, 98.9° (Epoch: 10 June)

Event Time Altitude Azimuth Distance (km) Brightness Sun altitude
Exits shadow 21:23:17 13° 185° (S) 1,976 5.2 -13.0°
Maximum altitude 21:27:24 51° 259° (W) 897 4.0 -13.3°
Drops below altitude 10° 21:32:10 10° 336° (NNW) 2,233 7.4 -13.6°
Sets 21:34:33 0° 341° (NNW) 3,175 8.5 -13.8°
